Aktuell
News
Messwerte
Diagramme
Archiv
Wettervorhersage
Regen
Wettergefahren

Astro & Geo
Health
Pegel
Gästebuch
Kontakt
Impressum
Datenschutz
App

Wolkenlos bei 14.7 °C – Luftdruck: 1012.3 hPa – Wind: SO 0.0 km/h
Messwerte von 02:07 Uhr; Warnsymbol: Datenbasis DWD; Wetterzustand powered by
Übersicht
Heute
Gestern
Vor 1 Jahr
Info
Vor 1 Jahr
 
Messwerte von Sonntag, 22.09.2019
Symbol
Zeitpunkt
Wetter-
zustand
Zeitpunkt
Temperatur
Zeitpunkt
Luftfeuchte
Taupunkt
Zeitpunkt
Luftdruck
Zeitpunkt
Wind
Zeitpunkt
Windböen
Max 15 Min.
Wind-
richtung
Zeitpunkt
Regen
Summe 1 h
Regenrate
Max 15 Min.
UV-Index
Max 15 Min.
Pegel Köln
Zeitpunkt
Warnlage
Zeitpunkt
00:15 Wolkenlos2 15.8 °C 51 %
5.7 °C
1013.1 hPa 4.7 km/h
1 Bft
11.2 km/h
2 Bft
OSO -
0.0 mm/h
0.0 150 cm
00:30 Wolkenlos2 15.6 °C 52 %
5.8 °C
1012.8 hPa 4.7 km/h
1 Bft
13.0 km/h
3 Bft
O -
0.0 mm/h
0.0 150 cm
00:45 Wolkenlos2 15.4 °C 52 %
5.6 °C
1012.7 hPa 3.2 km/h
1 Bft
9.7 km/h
2 Bft
OSO -
0.0 mm/h
0.0 149 cm
01:00 Wolkenlos2 15.4 °C 52 %
5.6 °C
1012.5 hPa 4.7 km/h
1 Bft
13.0 km/h
3 Bft
O 0.00 mm
0.0 mm/h
0.0 150 cm
01:15 Wolkenlos2 15.7 °C 51 %
5.6 °C
1012.3 hPa 6.5 km/h
2 Bft
17.6 km/h
3 Bft
SSO -
0.0 mm/h
0.0 149 cm
01:30 Wolkenlos2 15.6 °C 51 %
5.5 °C
1012.3 hPa 3.2 km/h
1 Bft
11.2 km/h
2 Bft
SO -
0.0 mm/h
0.0 149 cm
01:45 Wolkenlos2 15.1 °C 53 %
5.6 °C
1012.2 hPa 4.7 km/h
1 Bft
13.0 km/h
3 Bft
O -
0.0 mm/h
0.0 150 cm
02:00 Wolkenlos2 14.9 °C 53 %
5.4 °C
1012.2 hPa 6.5 km/h
2 Bft
13.0 km/h
3 Bft
OSO 0.00 mm
0.0 mm/h
0.0 150 cm
02:15 Wolkenlos2 14.8 °C 54 %
5.6 °C
1012.1 hPa 5.1 km/h
1 Bft
13.0 km/h
3 Bft
SO -
0.0 mm/h
0.0 150 cm
02:30 Wolkenlos2 14.8 °C 54 %
5.6 °C
1012.1 hPa 4.7 km/h
1 Bft
11.2 km/h
2 Bft
SSO -
0.0 mm/h
0.0 150 cm
02:45 Wolkenlos2 14.7 °C 54 %
5.5 °C
1012.1 hPa 6.5 km/h
2 Bft
14.4 km/h
3 Bft
O -
0.0 mm/h
0.0 149 cm
03:00 Wolkenlos2 14.5 °C 55 %
5.6 °C
1012.0 hPa 6.5 km/h
2 Bft
16.2 km/h
3 Bft
OSO 0.00 mm
0.0 mm/h
0.0 150 cm
03:15 Wolkenlos2 14.2 °C 56 %
5.6 °C
1011.9 hPa 4.7 km/h
1 Bft
13.0 km/h
3 Bft
SO -
0.0 mm/h
0.0 150 cm
03:30 Wolkenlos2 14.2 °C 56 %
5.6 °C
1011.7 hPa 6.5 km/h
2 Bft
16.2 km/h
3 Bft
SSO -
0.0 mm/h
0.0 149 cm
03:45 Wolkenlos2 14.1 °C 56 %
5.5 °C
1011.7 hPa 4.7 km/h
1 Bft
14.4 km/h
3 Bft
SSO -
0.0 mm/h
0.0 150 cm
04:00 Wolkenlos2 13.9 °C 57 %
5.5 °C
1011.4 hPa 4.7 km/h
1 Bft
14.4 km/h
3 Bft
OSO 0.00 mm
0.0 mm/h
0.0 149 cm
04:15 Wolkenlos2 14.2 °C 56 %
5.6 °C
1011.4 hPa 6.5 km/h
2 Bft
14.4 km/h
3 Bft
SSO -
0.0 mm/h
0.0 149 cm
04:30 Wolkenlos2 14.2 °C 56 %
5.6 °C
1011.2 hPa 6.5 km/h
2 Bft
17.6 km/h
3 Bft
OSO -
0.0 mm/h
0.0 150 cm
04:45 Wolkenlos2 14.1 °C 57 %
5.7 °C
1011.1 hPa 6.5 km/h
2 Bft
16.2 km/h
3 Bft
OSO -
0.0 mm/h
0.0 149 cm
05:00 Wolkenlos2 13.9 °C 57 %
5.5 °C
1011.0 hPa 6.5 km/h
2 Bft
16.2 km/h
3 Bft
O 0.00 mm
0.0 mm/h
0.0 149 cm
05:15 Wolkenlos2 14.2 °C 57 %
5.8 °C
1010.9 hPa 6.5 km/h
2 Bft
16.2 km/h
3 Bft
OSO -
0.0 mm/h
0.0 149 cm
05:30 Wolkenlos2 14.2 °C 57 %
5.8 °C
1010.8 hPa 7.9 km/h
2 Bft
17.6 km/h
3 Bft
OSO -
0.0 mm/h
0.0 150 cm
05:45 Wolkenlos2 14.2 °C 57 %
5.8 °C
1010.8 hPa 7.9 km/h
2 Bft
17.6 km/h
3 Bft
OSO -
0.0 mm/h
0.0 150 cm
06:00 Wolkenlos2 14.2 °C 57 %
5.8 °C
1010.6 hPa 6.5 km/h
2 Bft
14.4 km/h
3 Bft
SO 0.00 mm
0.0 mm/h
0.0 149 cm
06:15 Wolkenlos2 14.2 °C 58 %
6.1 °C
1010.5 hPa 6.5 km/h
2 Bft
19.4 km/h
3 Bft
SO -
0.0 mm/h
0.0 150 cm
06:30 Wolkenlos2 14.2 °C 58 %
6.1 °C
1010.5 hPa 6.7 km/h
2 Bft
19.4 km/h
3 Bft
SO -
0.0 mm/h
0.0 149 cm
06:45 Wolkenlos2 13.9 °C 59 %
6.0 °C
1010.4 hPa 4.7 km/h
1 Bft
16.2 km/h
3 Bft
OSO -
0.0 mm/h
0.0 150 cm
07:00 Wolkenlos2 13.9 °C 60 %
6.3 °C
1010.4 hPa 6.5 km/h
2 Bft
14.4 km/h
3 Bft
OSO 0.00 mm
0.0 mm/h
0.0 149 cm
07:15 Wolkenlos2 13.8 °C 60 %
6.2 °C
1010.3 hPa 7.9 km/h
2 Bft
19.4 km/h
3 Bft
O -
0.0 mm/h
0.0 150 cm
07:30 Sonnig2 13.7 °C 61 %
6.3 °C
1010.3 hPa 7.9 km/h
2 Bft
17.6 km/h
3 Bft
SO -
0.0 mm/h
0.0 150 cm
07:45 Sonnig2 13.8 °C 61 %
6.4 °C
1010.2 hPa 7.9 km/h
2 Bft
16.2 km/h
3 Bft
OSO -
0.0 mm/h
0.0 150 cm
08:00 Sonnig2 14.1 °C 61 %
6.7 °C
1010.3 hPa 6.8 km/h
2 Bft
17.6 km/h
3 Bft
SSO 0.00 mm
0.0 mm/h
0.0 150 cm
08:15 Sonnig2 14.2 °C 60 %
6.5 °C
1010.1 hPa 7.6 km/h
2 Bft
19.4 km/h
3 Bft
OSO -
0.0 mm/h
0.0 150 cm
08:30 Sonnig2 14.6 °C 60 %
6.9 °C
1010.1 hPa 4.7 km/h
1 Bft
14.4 km/h
3 Bft
SO -
0.0 mm/h
0.0 149 cm
08:45 Leicht bewölkt3 14.9 °C 59 %
7.0 °C
1010.1 hPa 7.9 km/h
2 Bft
19.4 km/h
3 Bft
OSO -
0.0 mm/h
0.0 149 cm
09:00 Leicht bewölkt3 15.4 °C 57 %
6.9 °C
1010.2 hPa 6.0 km/h
2 Bft
16.2 km/h
3 Bft
OSO 0.00 mm
0.0 mm/h
0.0 150 cm
09:15 Sonnig2 15.8 °C 56 %
7.0 °C
1010.1 hPa 9.7 km/h
2 Bft
22.7 km/h
4 Bft
OSO -
0.0 mm/h
0.8 149 cm
09:30 Sonnig2 16.3 °C 55 %
7.2 °C
1010.1 hPa 7.9 km/h
2 Bft
19.4 km/h
3 Bft
O -
0.0 mm/h
0.9 150 cm
09:45 Leicht bewölkt3 16.9 °C 54 %
7.5 °C
1010.2 hPa 9.7 km/h
2 Bft
22.7 km/h
4 Bft
OSO -
0.0 mm/h
1.0 150 cm
10:00 Leicht bewölkt3 17.3 °C 53 %
7.6 °C
1010.1 hPa 7.9 km/h
2 Bft
20.9 km/h
4 Bft
SO 0.00 mm
0.0 mm/h
1.6 150 cm
10:15 Leicht bewölkt3 17.9 °C 51 %
7.6 °C
1010.0 hPa 10.8 km/h
2 Bft
22.7 km/h
4 Bft
SSO -
0.0 mm/h
1.8 150 cm
10:30 Sonnig2 18.6 °C 50 %
8.0 °C
1010.0 hPa 7.9 km/h
2 Bft
19.4 km/h
3 Bft
OSO -
0.0 mm/h
2.2 150 cm
10:45 Leicht bewölkt3 19.2 °C 49 %
8.2 °C
1009.9 hPa 8.3 km/h
2 Bft
22.7 km/h
4 Bft
SSW -
0.0 mm/h
2.5 150 cm
11:00 Leicht bewölkt3 19.6 °C 48 %
8.3 °C
1009.9 hPa 9.7 km/h
2 Bft
25.9 km/h
4 Bft
O 0.00 mm
0.0 mm/h
2.5 150 cm
11:15 Leicht bewölkt3 20.0 °C 48 %
8.7 °C
1009.8 hPa 7.9 km/h
2 Bft
24.1 km/h
4 Bft
O -
0.0 mm/h
2.6 150 cm
11:30 Leicht bewölkt3 20.1 °C 48 %
8.7 °C
1009.6 hPa 9.7 km/h
2 Bft
22.7 km/h
4 Bft
SSO -
0.0 mm/h
2.7 149 cm
11:45 Leicht bewölkt3 20.6 °C 47 %
8.9 °C
1009.4 hPa 9.7 km/h
2 Bft
20.9 km/h
4 Bft
OSO -
0.0 mm/h
2.9 150 cm
12:00 Leicht bewölkt3 21.6 °C 46 %
9.5 °C
1009.2 hPa 7.9 km/h
2 Bft
22.7 km/h
4 Bft
O 0.00 mm
0.0 mm/h
3.4 150 cm
12:15 Sonnig2 22.4 °C 44 %
9.5 °C
1009.2 hPa 9.3 km/h
2 Bft
20.9 km/h
4 Bft
NO -
0.0 mm/h
3.6 150 cm
12:30 Sonnig2 23.0 °C 43 %
9.7 °C
1009.0 hPa 7.9 km/h
2 Bft
20.9 km/h
4 Bft
OSO -
0.0 mm/h
3.7 149 cm
12:45 Leicht bewölkt3 23.5 °C 42 %
9.8 °C
1008.8 hPa 6.5 km/h
2 Bft
17.6 km/h
3 Bft
O -
0.0 mm/h
3.7 149 cm
13:00 Wolkig3 24.2 °C 42 %
10.5 °C
1008.6 hPa 6.7 km/h
2 Bft
19.4 km/h
3 Bft
SO 0.00 mm
0.0 mm/h
4.0 149 cm
13:15 Leicht bewölkt3 25.1 °C 41 %
10.9 °C
1008.3 hPa 9.7 km/h
2 Bft
17.6 km/h
3 Bft
OSO -
0.0 mm/h
4.0 149 cm
13:30 Leicht bewölkt3 25.3 °C 40 %
10.7 °C
1008.3 hPa 7.9 km/h
2 Bft
20.9 km/h
4 Bft
SO -
0.0 mm/h
4.0 148 cm
13:45 Leicht bewölkt3 26.3 °C 41 %
12.0 °C
1008.1 hPa 6.5 km/h
2 Bft
17.6 km/h
3 Bft
WSW -
0.0 mm/h
3.9 149 cm
14:00 Leicht bewölkt3 26.6 °C 40 %
11.9 °C
1007.9 hPa 7.9 km/h
2 Bft
19.4 km/h
3 Bft
SSO 0.00 mm
0.0 mm/h
3.9 149 cm
14:15 Wolkig3 27.4 °C 39 %
12.2 °C
1007.9 hPa 6.5 km/h
2 Bft
19.4 km/h
3 Bft
SO -
0.0 mm/h
4.0 148 cm
14:30 Wolkig3 26.6 °C 42 %
12.6 °C
1007.8 hPa 6.5 km/h
2 Bft
17.6 km/h
3 Bft
SSO -
0.0 mm/h
3.9 148 cm
14:45 Wolkig3 26.2 °C 43 %
12.6 °C
1007.7 hPa 6.5 km/h
2 Bft
20.9 km/h
4 Bft
SO -
0.0 mm/h
2.5 149 cm
15:00 Wolkig3 25.8 °C 44 %
12.6 °C
1007.6 hPa 7.9 km/h
2 Bft
20.9 km/h
4 Bft
SSO 0.00 mm
0.0 mm/h
2.3 149 cm
15:15 Wolkig3 25.3 °C 45 %
12.5 °C
1007.5 hPa 7.9 km/h
2 Bft
19.4 km/h
3 Bft
S -
0.0 mm/h
1.9 148 cm
15:30 Wolkig3 25.4 °C 45 %
12.6 °C
1007.4 hPa 9.7 km/h
2 Bft
19.4 km/h
3 Bft
SSO -
0.0 mm/h
2.2 148 cm
15:45 Wolkig3 25.6 °C 44 %
12.4 °C
1007.2 hPa 7.9 km/h
2 Bft
20.9 km/h
4 Bft
OSO -
0.0 mm/h
2.1 148 cm
16:00 Wolkig3 25.4 °C 45 %
12.6 °C
1007.2 hPa 6.5 km/h
2 Bft
20.9 km/h
4 Bft
SSW 0.00 mm
0.0 mm/h
1.6 148 cm
16:15 Wolkig3 25.2 °C 45 %
12.4 °C
1007.2 hPa 7.9 km/h
2 Bft
22.7 km/h
4 Bft
SO -
0.0 mm/h
1.3 148 cm
16:30 Wolkig3 25.2 °C 45 %
12.4 °C
1007.2 hPa 7.9 km/h
2 Bft
19.4 km/h
3 Bft
SO -
0.0 mm/h
1.4 148 cm
16:45 Wolkig3 25.2 °C 45 %
12.4 °C
1007.1 hPa 7.9 km/h
2 Bft
20.9 km/h
4 Bft
SSO -
0.0 mm/h
1.4 147 cm
17:00 Bedeckt2 25.1 °C 46 %
12.7 °C
1007.0 hPa 6.5 km/h
2 Bft
19.4 km/h
3 Bft
SSO 0.00 mm
0.0 mm/h
1.2 148 cm
17:15 Wolkig3 25.1 °C 46 %
12.7 °C
1007.1 hPa 7.9 km/h
2 Bft
19.4 km/h
3 Bft
OSO -
0.0 mm/h
1.1 147 cm
17:30 Wolkig3 24.8 °C 46 %
12.4 °C
1007.1 hPa 7.9 km/h
2 Bft
20.9 km/h
4 Bft
SO -
0.0 mm/h
0.8 147 cm
17:45 Wolkig3 24.6 °C 47 %
12.5 °C
1007.1 hPa 6.5 km/h
2 Bft
22.7 km/h
4 Bft
SO -
0.0 mm/h
0.8 148 cm
18:00 Stark bewölkt3 24.4 °C 48 %
12.7 °C
1007.2 hPa 7.9 km/h
2 Bft
22.7 km/h
4 Bft
SO 0.00 mm
0.0 mm/h
0.6 147 cm
18:15 Stark bewölkt3 24.2 °C 49 %
12.8 °C
1007.1 hPa 6.5 km/h
2 Bft
19.4 km/h
3 Bft
SSO -
0.0 mm/h
0.0 147 cm
18:30 Stark bewölkt3 24.1 °C 49 %
12.7 °C
1007.1 hPa 6.5 km/h
2 Bft
17.6 km/h
3 Bft
SSO -
0.0 mm/h
0.0 147 cm
18:45 Leicht bewölkt3 23.9 °C 50 %
12.8 °C
1006.9 hPa 5.9 km/h
2 Bft
14.4 km/h
3 Bft
O -
0.0 mm/h
0.0 147 cm
19:00 Wolkig3 23.6 °C 51 %
12.9 °C
1007.0 hPa 4.7 km/h
1 Bft
13.0 km/h
3 Bft
SO 0.00 mm
0.0 mm/h
0.0 147 cm
19:15 Leicht bewölkt3 23.6 °C 51 %
12.9 °C
1007.0 hPa 4.7 km/h
1 Bft
16.2 km/h
3 Bft
SO -
0.0 mm/h
0.0 147 cm
19:30 Leicht bewölkt3 23.1 °C 51 %
12.4 °C
1007.0 hPa 3.2 km/h
1 Bft
11.2 km/h
2 Bft
OSO -
0.0 mm/h
0.0 147 cm
19:45 Wolkig3 22.9 °C 52 %
12.5 °C
1006.9 hPa 4.7 km/h
1 Bft
14.4 km/h
3 Bft
OSO -
0.0 mm/h
0.0 146 cm
20:00 Bedeckt2 22.7 °C 52 %
12.3 °C
1007.0 hPa 4.7 km/h
1 Bft
13.0 km/h
3 Bft
SO 0.00 mm
0.0 mm/h
0.0 147 cm
20:15 Wolkig3 22.2 °C 53 %
12.2 °C
1007.0 hPa 4.7 km/h
1 Bft
13.0 km/h
3 Bft
SO -
0.0 mm/h
0.0 147 cm
20:30 Wolkig3 21.9 °C 54 %
12.2 °C
1007.0 hPa 4.7 km/h
1 Bft
11.2 km/h
2 Bft
OSO -
0.0 mm/h
0.0 146 cm
20:45 Wolkig3 21.6 °C 56 %
12.4 °C
1007.3 hPa 4.7 km/h
1 Bft
14.4 km/h
3 Bft
OSO -
0.0 mm/h
0.0 147 cm
21:00 Wolkig3 21.5 °C 56 %
12.3 °C
1007.4 hPa 6.5 km/h
2 Bft
14.4 km/h
3 Bft
SO 0.00 mm
0.0 mm/h
0.0 146 cm
21:15 Wolkig3 21.2 °C 56 %
12.1 °C
1007.4 hPa 4.7 km/h
1 Bft
11.2 km/h
2 Bft
SSO -
0.0 mm/h
0.0 146 cm
21:30 Wolkig3 21.0 °C 57 %
12.1 °C
1007.5 hPa 3.2 km/h
1 Bft
9.7 km/h
2 Bft
S -
0.0 mm/h
0.0 146 cm
21:45 Wolkig3 20.8 °C 57 %
12.0 °C
1007.7 hPa 3.2 km/h
1 Bft
7.9 km/h
2 Bft
SSO -
0.0 mm/h
0.0 146 cm
22:00 Wolkig3 21.3 °C 56 %
12.2 °C
1008.3 hPa 6.5 km/h
2 Bft
13.0 km/h
3 Bft
SSW 0.00 mm
0.0 mm/h
0.0 146 cm
22:15 Wolkig3 21.2 °C 59 %
12.9 °C
1008.3 hPa 6.5 km/h
2 Bft
13.0 km/h
3 Bft
WSW -
0.0 mm/h
0.0 146 cm
22:30 Wolkig3 21.1 °C 68 %
15.0 °C
1008.5 hPa 7.9 km/h
2 Bft
20.9 km/h
4 Bft
W -
0.0 mm/h
0.0 146 cm
22:45 Wolkig3 20.4 °C 74 %
15.6 °C
1008.6 hPa 6.5 km/h
2 Bft
17.6 km/h
3 Bft
W -
0.0 mm/h
0.0 146 cm
23:00 Leichter Regen2 19.1 °C 83 %
16.1 °C
1008.9 hPa 7.9 km/h
2 Bft
16.2 km/h
3 Bft
SW 0.00 mm
0.0 mm/h
0.0 146 cm
23:15 Leichter Regen2 18.7 °C 86 %
16.3 °C
1009.0 hPa 4.7 km/h
1 Bft
14.4 km/h
3 Bft
W -
0.0 mm/h
0.0 146 cm
23:30 Leichter Regen2 18.4 °C 88 %
16.4 °C
1009.1 hPa 4.7 km/h
1 Bft
13.0 km/h
3 Bft
WSW -
0.0 mm/h
0.0 146 cm
23:45 Leichter Regen2 18.2 °C 88 %
16.2 °C
1009.3 hPa 4.7 km/h
1 Bft
13.0 km/h
3 Bft
NW -
0.0 mm/h
0.0 146 cm
00:00 Bedeckt2 17.9 °C 87 %
15.7 °C
1009.6 hPa 7.9 km/h
2 Bft
17.6 km/h
3 Bft
W 0.00 mm
0.0 mm/h
0.0 146 cm
Datenbasis Wetterzustand: ¹ Wetterstation Köln-Nippes (Stellwerk), ² powered by , ³ powered by OpenWeatherMap, CC BY-SA 4.0; Warnlage: DWD, Pegelonline, LANUV; Pegel Köln: Pegelonline
 
Extrem- und Durchschnittswerte
  Temperatur Luftfeuchte Luftdruck Wind Windböen Wind-
richtung
Regen UV-Index Pegel Köln KKT
Min

Max

Ø
13.7 °C
07:17 Uhr
27.4 °C
14:14 Uhr
19.5 °C
39.0 %
14:14 Uhr
88.0 %
23:28 Uhr
53.4 %
1006.8 hPa
19:45 Uhr
1013.2 hPa
00:00 Uhr
1009.4 hPa
 
 
11.2 km/h
10:08 Uhr
6.7 km/h
 
 
25.9 km/h
10:48 Uhr
 
 
 
OSO
 
 
 
 
0.00 mm
 
 
 
 
4.1
14:14 Uhr
 
146 cm
19:45 Uhr
150 cm
00:15 Uhr
 
ST
  Taupunkt   Wind Windböen   Regenrate Ozon Sonne Mond
Min

Max

Ø
5.3 °C
01:21 Uhr
16.4 °C
23:19 Uhr
9.6 °C
   
 
2 Bft
10:08 Uhr
6.7 km/h
 
 
4 Bft
10:48 Uhr
 
   
 
0.0 mm/h
00:00 Uhr
 
 
Chorweiler
96 μg/m³
15:00 Uhr
 
▲ 07:18 Uhr
▼ 19:32 Uhr
▲ gestern
▼ 15:52 Uhr
KKT = Klimatologischer Kenntag: ET = Eistag, FT = Frosttag, KT = Kalter Tag, ST = Sommertag, HT = Hitzetag, TN = Tropennacht, NT = Niederschlagstag, SH = Schneehöhe (Max Tag); Datenbasis Ozon: LANUV, Land NRW, dl-de/by-2-0
Für dieses Datum steht leider (noch) kein Tagesrückblick zur Verfügung.
 
Tagesgrafik
Grafik zum Vergrößern anklicken
 
Detaillierte Warnlage
















22.09.19

22.09.19

22.09.19

22.09.19

22.09.19

22.09.19

22.09.19
Datenbasis: DWD, Pegelonline, LANUV


Zurück zur Eingabemaske